Погода в Трубичино

Россия / Новгородская область     58°35′51″N   31°18′29″E
темп.,
°C
ветер,
м/с
пор.,
м/с
влажн.,
%
обл.,
%
осадки,
мм/ч
давл.,
гПа
погр.,
м
14 мая, пт
пт1400:00+11ююв357793 0.0 1012106
03:00+9ююв37945 0.0 1012199
06:00+8ююв379514 0.0 1012207
09:00+12ююв47715 0.0 1012480
12:00+15ююв5960100 0.0 10121148
15:00+18ююв385791 0.0 10121352
18:00+18ююв375953 0.0 10101076
21:00+14вюв25797 0.1 101097
15 мая, сб
сб1500:00+11в34935 0.0 100959
03:00+10в259498 0.0 100991
06:00+11в3791100 0.0 1008164
09:00+15вюв3677100 0.0 1007428
12:00+18вюв1266100 0.5 1007868
15:00+20св2255100 0.8 10051404
18:00+18в247298 0.9 1004475
21:00+15св019163 2.1 100411
16 мая, вс
вс1600:00+12с239823 0.5 100446
03:00+11с119865 0.8 100421
06:00+11сз139596 0.6 100588
09:00+15з128083 0.6 1006378
12:00+19юз3365100 0.3 10071094
15:00+19юз336880 2.0 1008994
18:00+18з348155 4.1 1008386
21:00+14з129110 6.2 101010
17 мая, пн
пн1700:00+12юз00925 0.0 101110
03:00+11ююв229623 0.0 101123
06:00+11юв249958 0.0 101294
09:00+15ююв358612 0.0 1012252
12:00+20ююв4664100 0.0 1012957
15:00+21юв3755100 0.0 10101432
18:00+21вюв3863100 0.0 1008462
21:00+18в51370100 0.1 1006424
18 мая, вт
вт1800:00+16в51493100 3.7 1003410
03:00+16юв61495100 5.8 1002747
06:00+13зюз4119191 0.5 1004630
09:00+15юз4683100 0.6 1006773
12:00+16юз4570100 0.1 10081098
15:00+18ююз3355100 0.2 10091319
18:00+18ю2259100 0.0 1009447
21:00+14ю1176100 0.0 100911